National Weather Service Raw Text Product

Displaying AFOS PIL: RWRIA Received: 2017-08-13 13:00 UTC


754 
ASUS43 KDMX 131306
RWRIA 

WEATHER ROUNDUP FOR IOWA
NATIONAL WEATHER SERVICE DES MOINES IA
800 AM CDT SUN AUG 13 2017

NOTE: "FAIR" INDICATES FEW OR NO CLOUDS BELOW 12,000 FEET WITH NO
SIGNIFICANT WEATHER AND/OR OBSTRUCTIONS TO VISIBILITY.

* - THESE STATIONS ARE NOT NWS STATIONS...THUS NOT UNDER NWS
QUALITY CONTROL.  THEY ALSO DO NOT REPORT WEATHER SUCH 
AS PRECIPITATION OR FOG.  

IAZ001>003-012>014-020>022-031>034-043>046-131400-
   NORTHWEST IOWA
  
CITY           SKY/WX    TMP DP  RH WIND       PRES   REMARKS
CARROLL *      CLOUDY    63  63 100 CALM      30.02R                  
CHEROKEE *     CLOUDY    62  60  93 SE3       30.00S                  
DENISON *      CLOUDY    63  57  82 S7        30.02S                  
LE MARS *      CLOUDY    63  61  94 SE10      29.97F                  
ORANGE CITY *  PTSUNNY   64  61  88 S6        29.98F                  
SHELDON *      CLOUDY    63  57  82 SE10      29.97S                  
SIOUX CITY     CLOUDY    63  63 100 SE10      29.96F                  
SPENCER        CLOUDY    62  58  86 SE7       30.01S                  
STORM LAKE *   CLOUDY    59  59 100 SE6       30.02S                  
$$
 
IAZ055>058-069>071-079>083-090>094-131400-
   SOUTHWEST IOWA
  
CITY           SKY/WX    TMP DP  RH WIND       PRES   REMARKS
ATLANTIC *     CLOUDY    63  59  88 CALM      30.02R                  
AUDUBON *      PTSUNNY   63  57  82 CALM      30.03S                  
CLARINDA *     CLOUDY    61  61 100 CALM      30.04R                  
COUNCIL BLFS * CLOUDY    63  63 100 SE8       30.00S                  
CRESTON *      CLOUDY    63  57  82 SE6       30.04R                  
HARLAN  *      LGT RAIN  63  61  94 SE3       30.05S                  
LAMONI         CLOUDY    61  56  83 SE6       30.03S                  
RED OAK *      CLOUDY    64  59  82 CALM      30.02S                  
SHENANDOAH *   CLOUDY    63  59  88 CALM      30.02R                  
$$
 
IAZ047>049-059>061-072>074-084-131400-
   CENTRAL IOWA
  
CITY           SKY/WX    TMP DP  RH WIND       PRES   REMARKS
AMES           CLOUDY    61  58  90 CALM      30.03R                  
ANKENY *       LGT RAIN  63  59  88 S3        30.04S                  
BOONE *        CLOUDY    61  57  88 VRB5      30.03R                  
CHARITON *     CLOUDY    63  55  77 SE5       30.03S                  
DES MOINES     CLOUDY    65  56  72 SE8       30.03R                  
GRINNELL*      CLOUDY    59  54  84 SE5       30.06S                  
KNOXVILLE *    CLOUDY    63  55  77 SE7       30.03S                  
MARSHALLTOWN   CLOUDY    60  55  83 E7        30.04S                  
NEWTON *       CLOUDY    61  55  82 SE7       30.04F                  
PELLA *        CLOUDY    61  55  81 SE5       30.05F                  
PERRY *        PTSUNNY   61  60  97 CALM      30.03R                  
$$
 
IAZ004>006-015-016-023>025-035-036-131400-
   NORTH CENTRAL IOWA
  
CITY           SKY/WX    TMP DP  RH WIND       PRES   REMARKS
ALGONA *       CLOUDY    63  54  72 S8        30.02R                  
CLARION *      CLOUDY    61  55  82 SE9       30.03S                  
ESTHERVILLE    CLOUDY    59  56  89 S8        30.00S                  
FORT DODGE *   CLOUDY    61  54  77 CALM      30.04R                  
MASON CITY     CLOUDY    59  54  83 SE6       30.05S                  
FOREST CITY *    N/A     61  54  77 SE5       30.03R                  
WEBSTER CITY * CLOUDY    61  55  82 SE7       30.01R                  
IOWA FALLS *     N/A     60  55  86 SE6       30.05S                  
$$

IAZ007>011-017>019-026>030-037>042-050>054-066-131400-
   NORTHEAST IOWA
  
CITY           SKY/WX    TMP DP  RH WIND       PRES   REMARKS
CEDAR RAPIDS   PTSUNNY   59  59 100 CALM      30.07R                  
CHARLES CITY * CLOUDY    59  57  94 E5        30.06S                  
CLINTON *      MOSUNNY   61  60  97 MISG      30.09R                  
DECORAH *      CLOUDY    57  55  94 CALM      30.07R                  
DUBUQUE        MOSUNNY   63  56  78 CALM      30.09S                  
MONTICELLO *   PTSUNNY   55  55 100 CALM      30.08S                  
OELWEIN *      CLOUDY    57  57 100 SE5       30.08R                  
WATERLOO       CLOUDY    58  53  84 SE5       30.05S                  
$$
 
IAZ064-065-067-068-078-131400-
   EAST CENTRAL IOWA
  
CITY           SKY/WX    TMP DP  RH WIND       PRES   REMARKS
DAVENPORT      SUNNY     61  57  87 CALM      30.10S                  
IOWA CITY      PTSUNNY   62  57  83 CALM      30.08S                  
MT. PLEASANT * MOSUNNY   61  59  93 E3        30.07S                  
MUSCATINE *    MOSUNNY   59  57  94 CALM      30.08S                  
QUAD CITIES    SUNNY     60  56  86 CALM      30.08R                  
$$
 
IAZ062-063-075>077-085>089-095>099-131400-
   SOUTHEAST IOWA
  
CITY           SKY/WX    TMP DP  RH WIND       PRES   REMARKS
BURLINGTON     MOSUNNY   63  59  87 SE3       30.07R                  
FAIRFIELD *    PTSUNNY   63  55  77 SE6       30.05F                  
FORT MADISON * MOSUNNY   63  61  94 SE3       30.08S                  
KEOKUK *       SUNNY     64  59  82 E7        30.06S                  
OSKALOOSA *      N/A     61  56  83 SE7       30.06R                  
CENTERVILLE *    N/A     63  59  88 CALM      30.06S                  
OTTUMWA        MOSUNNY   62  57  83 SE6       30.06R                  
WASHINGTON *   MOSUNNY   61  59  94 SE3       30.08S                  
$$

ABBREVIATIONS USED IN REMARKS
   TC - TEMPERATURES IN CELSIUS
  WCI - WIND CHILL INDEX
   HX - HEAT INDEX
  VSB - VISIBILITY  
$$

  

383 
ASUS43 KDMX 131301
RWRIA 

WEATHER ROUNDUP FOR IOWA
NATIONAL WEATHER SERVICE DES MOINES IA
800 AM CDT SUN AUG 13 2017

NOTE: "FAIR" INDICATES FEW OR NO CLOUDS BELOW 12,000 FEET WITH NO
SIGNIFICANT WEATHER AND/OR OBSTRUCTIONS TO VISIBILITY.

* - THESE STATIONS ARE NOT NWS STATIONS...THUS NOT UNDER NWS
QUALITY CONTROL.  THEY ALSO DO NOT REPORT WEATHER SUCH 
AS PRECIPITATION OR FOG.  

IAZ001>003-012>014-020>022-031>034-043>046-131400-
   NORTHWEST IOWA
  
CITY           SKY/WX    TMP DP  RH WIND       PRES   REMARKS
CARROLL *      CLOUDY    63  63 100 CALM      30.02R                  
CHEROKEE *     CLOUDY    62  60  93 SE3       30.00S                  
DENISON *      CLOUDY    63  57  82 S7        30.02S                  
LE MARS *      CLOUDY    63  61  94 SE10      29.97F                  
ORANGE CITY *  PTSUNNY   64  61  88 S6        29.98F                  
SHELDON *      CLOUDY    63  57  82 SE10      29.97S                  
SIOUX CITY     CLOUDY    63  63 100 SE10      29.96F                  
SPENCER        CLOUDY    62  58  86 SE7       30.01S                  
STORM LAKE *   CLOUDY    59  59 100 SE6       30.02S                  
$$
 
IAZ055>058-069>071-079>083-090>094-131400-
   SOUTHWEST IOWA
  
CITY           SKY/WX    TMP DP  RH WIND       PRES   REMARKS
ATLANTIC *     CLOUDY    63  59  88 CALM      30.02R                  
AUDUBON *      PTSUNNY   63  57  82 CALM      30.03S                  
CLARINDA *     CLOUDY    61  61 100 CALM      30.04R                  
COUNCIL BLFS * CLOUDY    63  63 100 SE8       30.00S                  
CRESTON *      CLOUDY    63  57  82 SE6       30.04R                  
HARLAN  *      LGT RAIN  63  61  94 SE3       30.05S                  
LAMONI         CLOUDY    61  56  83 SE6       30.03S                  
RED OAK *      CLOUDY    64  59  82 CALM      30.02S                  
SHENANDOAH *   CLOUDY    63  59  88 CALM      30.02R                  
$$
 
IAZ047>049-059>061-072>074-084-131400-
   CENTRAL IOWA
  
CITY           SKY/WX    TMP DP  RH WIND       PRES   REMARKS
AMES           CLOUDY    61  58  90 CALM      30.03R                  
ANKENY *       LGT RAIN  63  59  88 S3        30.04S                  
BOONE *        CLOUDY    61  57  88 VRB5      30.03R                  
CHARITON *     CLOUDY    63  55  77 SE5       30.03S                  
DES MOINES     CLOUDY    65  56  72 SE8       30.03R                  
GRINNELL*      CLOUDY    59  54  84 SE5       30.06S                  
KNOXVILLE *    CLOUDY    63  55  77 SE7       30.03S                  
MARSHALLTOWN   CLOUDY    60  55  83 E7        30.04S                  
NEWTON *       CLOUDY    61  55  82 SE7       30.04F                  
PELLA *        CLOUDY    61  55  81 SE5       30.05F                  
PERRY *        PTSUNNY   61  60  97 CALM      30.03R                  
$$
 
IAZ004>006-015-016-023>025-035-036-131400-
   NORTH CENTRAL IOWA
  
CITY           SKY/WX    TMP DP  RH WIND       PRES   REMARKS
ALGONA *       CLOUDY    63  54  72 S8        30.02R                  
CLARION *      CLOUDY    61  55  82 SE9       30.03S                  
ESTHERVILLE    CLOUDY    59  56  89 S8        30.00S                  
FORT DODGE *   CLOUDY    61  54  77 CALM      30.04R                  
MASON CITY     CLOUDY    59  54  83 SE6       30.05S                  
FOREST CITY *    N/A     61  54  77 SE5       30.03R                  
WEBSTER CITY * CLOUDY    61  55  82 SE7       30.01R                  
IOWA FALLS *     N/A     60  55  86 SE6       30.05S                  
$$

IAZ007>011-017>019-026>030-037>042-050>054-066-131400-
   NORTHEAST IOWA
  
CITY           SKY/WX    TMP DP  RH WIND       PRES   REMARKS
CEDAR RAPIDS   PTSUNNY   59  59 100 CALM      30.07R                  
CHARLES CITY * CLOUDY    59  57  94 E5        30.06S                  
CLINTON *      MOSUNNY   61  60  97 MISG      30.09R                  
DECORAH *      CLOUDY    57  55  94 CALM      30.07R                  
DUBUQUE        MOSUNNY   63  56  78 CALM      30.09S                  
MONTICELLO *   PTSUNNY   55  55 100 CALM      30.08S                  
OELWEIN *      CLOUDY    57  57 100 SE5       30.08R                  
WATERLOO       CLOUDY    58  53  84 SE5       30.05S                  
$$
 
IAZ064-065-067-068-078-131400-
   EAST CENTRAL IOWA
  
CITY           SKY/WX    TMP DP  RH WIND       PRES   REMARKS
DAVENPORT      SUNNY     61  57  87 CALM      30.10S                  
IOWA CITY      PTSUNNY   62  57  83 CALM      30.08S                  
MUSCATINE *    MOSUNNY   59  57  94 CALM      30.08S                  
QUAD CITIES    SUNNY     60  56  86 CALM      30.08R                  
$$
 
IAZ062-063-075>077-085>089-095>099-131400-
   SOUTHEAST IOWA
  
CITY           SKY/WX    TMP DP  RH WIND       PRES   REMARKS
BURLINGTON     MOSUNNY   63  59  87 SE3       30.07R                  
FAIRFIELD *    PTSUNNY   63  55  77 SE6       30.05F                  
FORT MADISON * MOSUNNY   63  61  94 SE3       30.08S                  
KEOKUK *       SUNNY     64  59  82 E7        30.06S                  
OSKALOOSA *      N/A     61  56  83 SE7       30.06R                  
OTTUMWA        MOSUNNY   62  57  83 SE6       30.06R                  
WASHINGTON *   MOSUNNY   61  59  94 SE3       30.08S                  
$$

ABBREVIATIONS USED IN REMARKS
   TC - TEMPERATURES IN CELSIUS
  WCI - WIND CHILL INDEX
   HX - HEAT INDEX
  VSB - VISIBILITY  
$$